�N����,����,�~����,�C��,���x,�C��,����,���ϕ���,�ő�u�ԕ���,�ő厞����,���˗�,�I�_���x,�n�����x,�ő啗���N��,DTYPE
"19/09/04","00:10",0.0,25.6,86.9,1010.0,341.3,0.8,1.2,324.6,0.00,23.3,26.7,"00:02:48",1
"19/09/04","00:20",0.0,25.5,87.1,1009.7,334.5,0.8,1.3,344.0,0.00,23.2,26.8,"00:10:48",1
"19/09/04","00:30",0.0,25.4,87.6,1009.5,357.6,0.3,0.9,355.9,0.00,23.2,26.8,"00:21:20",1
"19/09/04","00:40",0.0,25.2,88.1,1010.0,321.9,0.6,1.1,331.7,0.00,23.1,26.7,"00:36:56",1
"19/09/04","00:50",0.0,25.2,88.6,1009.7,311.7,0.6,1.1,334.7,0.00,23.2,26.5,"00:40:32",1
"19/09/04","01:00",0.0,25.1,88.8,1009.7,304.2,0.8,1.7,341.1,0.00,23.2,26.6,"00:59:52",1
"19/09/04","01:10",0.0,25.2,88.8,1010.0,315.7,1.1,1.8,338.8,0.00,23.3,26.8,"01:03:52",1
"19/09/04","01:20",0.0,25.2,89.0,1009.7,310.3,1.0,1.9,338.7,0.00,23.3,26.7,"01:16:40",1
"19/09/04","01:30",0.0,25.2,89.1,1009.5,305.7,1.3,2.8,346.5,0.00,23.3,26.6,"01:28:24",1
"19/09/04","01:40",0.0,25.3,88.8,1010.0,324.2,1.6,2.8,344.8,0.00,23.4,26.4,"01:33:04",1
"19/09/04","01:50",0.0,25.2,88.8,1009.7,309.4,1.0,1.9,322.6,0.00,23.3,26.5,"01:46:56",1
"19/09/04","02:00",0.0,25.2,88.8,1009.3,299.2,1.1,2.7,325.3,0.00,23.3,26.2,"01:52:24",1
"19/09/04","02:10",0.0,25.0,88.7,1009.3,296.7,1.0,2.5,322.2,0.00,23.0,26.4,"02:08:08",1
"19/09/04","02:20",0.0,25.1,88.8,1009.5,324.0,1.0,2.5,340.7,0.00,23.2,26.5,"02:13:04",1
"19/09/04","02:30",0.0,25.0,88.6,1009.5,305.3,0.6,1.2,246.7,0.00,23.0,26.4,"02:29:20",1
"19/09/04","02:40",0.0,25.0,88.8,1009.5,316.2,1.2,2.4,335.9,0.00,23.1,26.3,"02:38:08",1
"19/09/04","02:50",0.0,25.0,88.9,1009.3,340.2,0.8,1.8,340.5,0.00,23.1,26.3,"02:40:24",1
"19/09/04","03:00",0.0,25.0,89.2,1009.5,321.7,0.5,1.0,332.3,0.00,23.1,26.3,"02:52:32",1
"19/09/04","03:10",0.0,24.9,89.1,1009.3,317.5,0.5,1.0,333.8,0.00,23.0,26.3,"03:07:52",1
"19/09/04","03:20",0.0,24.9,89.2,1009.5,275.5,0.2,1.0,315.8,0.00,23.0,26.3,"03:12:48",1
"19/09/04","03:30",0.0,24.7,89.4,1009.7,296.3,0.3,0.8,320.7,0.00,22.9,26.3,"03:25:28",1
"19/09/04","03:40",0.0,24.7,89.9,1009.7,315.8,0.8,1.2,326.5,0.00,23.0,26.3,"03:34:24",1
"19/09/04","03:50",0.0,24.5,90.1,1009.5,295.1,0.7,1.3,337.6,0.00,22.8,26.4,"03:40:08",1
"19/09/04","04:00",0.0,24.3,90.2,1009.7,309.2,1.0,1.8,334.4,0.00,22.6,26.2,"03:58:40",1
"19/09/04","04:10",0.0,24.3,90.5,1010.0,288.2,0.8,1.7,338.0,0.00,22.7,26.2,"04:00:48",1
"19/09/04","04:20",0.0,24.3,90.6,1009.7,300.9,0.7,1.3,323.8,0.00,22.7,26.2,"04:15:28",1
"19/09/04","04:30",0.0,24.3,90.6,1010.0,282.0,0.7,1.3,256.2,0.00,22.7,25.9,"04:28:40",1
"19/09/04","04:40",0.0,24.3,90.5,1009.7,285.5,0.7,1.0,294.1,0.00,22.7,26.1,"04:32:00",1
"19/09/04","04:50",0.0,24.3,90.6,1010.0,294.9,0.7,1.1,283.0,0.00,22.7,25.9,"04:41:36",1
"19/09/04","05:00",0.0,24.3,90.8,1009.7,332.0,1.0,1.6,336.3,0.00,22.7,26.1,"04:53:28",1
"19/09/04","05:10",0.0,24.0,90.9,1009.7,314.6,0.7,1.0,328.1,0.00,22.5,25.8,"05:01:04",1
"19/09/04","05:20",0.0,23.9,91.4,1009.7,311.9,1.0,1.4,321.6,0.00,22.5,26.0,"05:12:16",1
"19/09/04","05:30",0.0,23.8,91.6,1009.7,294.9,0.7,1.2,313.6,0.00,22.4,25.9,"05:29:04",1
"19/09/04","05:40",0.0,23.8,91.9,1010.0,300.3,0.8,1.3,271.4,0.00,22.4,25.9,"05:35:44",1
"19/09/04","05:50",0.0,23.7,91.9,1010.2,296.4,0.8,1.2,309.1,0.00,22.3,26.1,"05:43:36",1
"19/09/04","06:00",0.0,23.7,91.9,1010.0,310.3,1.1,1.6,324.6,0.00,22.3,25.7,"05:53:28",1
"19/09/04","06:10",0.0,23.5,92.1,1010.2,308.0,0.8,1.2,322.2,0.00,22.2,25.8,"06:08:48",1
"19/09/04","06:20",0.0,23.7,92.4,1010.2,301.6,1.0,1.8,326.9,0.00,22.4,25.7,"06:10:56",1
"19/09/04","06:30",0.0,23.8,92.5,1010.4,300.9,0.7,1.2,317.1,0.00,22.6,25.7,"06:23:04",1
"19/09/04","06:40",0.0,23.9,92.3,1010.4,313.2,0.6,1.0,323.1,0.00,22.6,25.5,"06:31:20",1
"19/09/04","06:50",0.0,24.0,92.5,1010.2,317.5,0.8,1.6,333.0,0.00,22.7,25.6,"06:48:48",1
"19/09/04","07:00",0.0,24.2,92.3,1010.4,338.1,0.3,1.1,332.6,0.01,22.9,25.5,"06:50:24",1
"19/09/04","07:10",0.0,24.4,92.4,1010.4,297.0,0.5,0.9,297.4,0.01,23.1,25.5,"07:04:16",1
"19/09/04","07:20",0.0,24.6,92.3,1010.7,301.9,0.5,0.9,322.0,0.03,23.3,25.7,"07:18:24",1
"19/09/04","07:30",0.0,24.6,91.9,1010.4,337.5,1.1,1.7,340.3,0.03,23.2,25.9,"07:28:56",1
"19/09/04","07:40",0.0,24.9,91.8,1010.4,309.2,0.8,1.3,332.0,0.04,23.5,25.7,"07:30:48",1
"19/09/04","07:50",0.0,25.0,91.3,1010.4,272.3,0.7,1.1,242.5,0.04,23.5,25.6,"07:43:28",1
"19/09/04","08:00",0.0,25.3,91.5,1010.7,322.9,0.8,1.6,320.1,0.04,23.9,25.8,"07:54:00",1
"19/09/04","08:10",0.0,26.4,90.1,1010.4,345.2,0.6,1.6,337.5,0.15,24.7,25.9,"08:00:56",1
"19/09/04","08:20",0.0,26.6,86.3,1010.7,355.9,0.5,1.1,323.9,0.14,24.2,26.1,"08:15:36",1
"19/09/04","08:30",0.0,27.6,84.5,1010.7,348.1,0.6,1.2,339.8,0.17,24.8,26.1,"08:22:16",1
"19/09/04","08:40",0.0,27.7,82.2,1010.0,185.6,0.2,1.1,192.4,0.22,24.4,26.4,"08:35:52",1
"19/09/04","08:50",0.0,28.3,80.4,1010.4,174.6,0.6,1.7,219.4,0.27,24.6,26.4,"08:48:40",1
"19/09/04","09:00",0.0,28.3,80.6,1011.2,174.3,1.0,2.1,220.2,0.23,24.7,26.7,"08:51:04",1
"19/09/04","09:10",0.0,28.3,78.8,1011.2,188.2,0.3,1.1,123.3,0.23,24.3,26.7,"09:00:32",1
"19/09/04","09:20",0.0,29.0,76.4,1011.6,358.7,0.6,1.6,356.4,0.35,24.5,27.2,"09:16:32",1
"19/09/04","09:30",0.0,29.0,75.4,1011.9,231.1,0.3,1.1,187.7,0.26,24.2,27.3,"09:29:36",1
"19/09/04","09:40",0.0,28.9,76.2,1011.6,218.3,0.6,2.0,356.8,0.21,24.3,27.4,"09:39:44",1
"19/09/04","09:50",0.0,29.6,75.2,1011.6,352.3,0.7,1.6,354.4,0.26,24.8,27.3,"09:40:16",1
"19/09/04","10:00",0.0,30.1,74.0,1011.6,137.1,0.6,2.0,127.7,0.36,25.0,27.5,"09:50:56",1
"19/09/04","10:10",0.0,29.4,74.2,1011.9,123.8,0.7,1.7,131.1,0.18,24.4,27.8,"10:00:24",1
"19/09/04","10:20",0.0,29.2,74.4,1011.6,119.5,0.5,1.2,36.3,0.14,24.2,27.8,"10:11:44",1
"19/09/04","10:30",0.0,29.3,74.9,1011.4,145.4,0.3,1.4,38.9,0.09,24.4,28.0,"10:22:48",1
"19/09/04","10:40",0.0,29.2,75.7,1010.9,248.4,0.2,1.0,355.7,0.08,24.5,28.0,"10:39:28",1
"19/09/04","10:50",0.0,29.1,75.2,1010.4,353.9,0.5,1.1,350.3,0.08,24.3,27.8,"10:41:52",1
"19/09/04","11:00",0.0,29.2,76.1,1010.2,123.7,0.2,0.9,81.8,0.08,24.6,28.1,"10:52:16",1
"19/09/04","11:10",0.0,29.3,75.7,1010.0,332.5,0.2,1.3,27.9,0.09,24.6,27.8,"11:00:48",1
"19/09/04","11:20",0.0,29.5,75.1,1010.0,319.1,0.6,1.4,347.6,0.12,24.7,27.9,"11:19:36",1
"19/09/04","11:30",0.0,29.3,75.9,1009.7,345.3,1.3,2.5,351.9,0.13,24.6,27.9,"11:21:12",1
"19/09/04","11:40",0.0,29.7,71.7,1009.7,45.1,0.8,2.0,323.0,0.13,24.1,27.8,"11:33:20",1
"19/09/04","11:50",0.0,30.3,72.6,1009.7,330.0,0.5,1.6,353.2,0.20,24.9,28.0,"11:47:36",1
"19/09/04","12:00",0.0,30.8,69.9,1009.5,353.3,0.6,2.2,350.9,0.27,24.7,28.1,"11:50:48",1
"19/09/04","12:10",0.0,30.1,71.7,1009.5,348.4,1.3,2.4,8.0,0.13,24.5,28.2,"12:05:20",1
"19/09/04","12:20",0.0,31.1,67.8,1009.3,23.7,0.8,2.0,348.0,0.23,24.5,28.3,"12:13:28",1
"19/09/04","12:30",0.0,30.6,68.2,1009.5,102.3,0.8,1.9,141.7,0.24,24.1,28.4,"12:23:12",1
"19/09/04","12:40",0.0,32.5,65.7,1009.7,280.5,0.6,1.4,333.6,0.55,25.3,28.4,"12:35:44",1
"19/09/04","12:50",0.0,32.9,61.4,1010.2,336.1,1.0,2.1,337.2,0.55,24.5,28.7,"12:41:04",1
"19/09/04","13:00",0.0,32.1,62.2,1010.2,130.0,1.3,3.2,53.5,0.29,24.0,28.7,"12:56:48",1
"19/09/04","13:10",0.0,32.6,60.7,1010.0,126.4,1.0,2.4,107.7,0.39,24.1,29.1,"13:04:16",1
"19/09/04","13:20",0.0,32.9,57.2,1010.2,130.9,0.8,2.7,112.3,0.55,23.4,29.2,"13:17:44",1
"19/09/04","13:30",0.0,33.4,56.6,1010.7,124.6,0.8,3.1,40.0,0.49,23.6,29.4,"13:24:16",1
"19/09/04","13:40",0.0,32.4,60.3,1010.2,22.0,1.2,2.8,36.7,0.20,23.8,29.4,"13:38:00",1
"19/09/04","13:50",0.0,32.9,61.2,1010.2,123.4,1.1,3.4,112.4,0.38,24.5,29.7,"13:43:04",1
"19/09/04","14:00",0.0,32.6,60.7,1010.0,39.9,1.1,2.8,83.9,0.27,24.1,29.8,"13:50:40",1
"19/09/04","14:10",0.0,34.2,53.8,1010.0,31.3,1.1,2.5,7.1,0.53,23.5,29.8,"14:06:40",1
"19/09/04","14:20",0.0,32.9,58.4,1009.5,42.0,0.8,2.4,11.9,0.18,23.7,29.8,"14:17:04",1
"19/09/04","14:30",0.0,32.5,60.2,1009.3,53.9,1.1,2.6,3.5,0.13,23.8,29.8,"14:24:24",1
"19/09/04","14:40",0.0,32.5,61.8,1008.6,32.5,0.7,1.8,109.1,0.16,24.3,29.8,"14:31:52",1
"19/09/04","14:50",0.0,33.6,56.3,1008.8,38.4,1.0,2.1,0.0,0.46,23.7,30.0,"14:44:16",1
"19/09/04","15:00",0.0,33.4,56.5,1008.8,85.8,0.8,1.8,91.7,0.33,23.6,30.1,"14:54:48",1
"19/09/04","15:10",0.0,33.2,55.6,1008.3,105.6,1.2,3.3,118.1,0.07,23.2,29.8,"15:07:12",1
"19/09/04","15:20",0.0,31.9,59.6,1008.1,133.2,1.3,4.2,136.6,0.01,23.1,29.8,"15:19:52",1
"19/09/04","15:30",1.0,27.4,73.0,1008.6,190.1,5.0,8.8,184.5,0.00,22.2,29.6,"15:27:12",1
"19/09/04","15:40",3.2,23.9,83.7,1008.6,165.2,4.7,10.8,205.3,0.00,21.0,25.3,"15:33:46",1
"19/09/04","15:50",3.4,22.9,86.0,1008.1,137.5,4.5,10.1,102.2,0.00,20.5,25.0,"15:41:56",1
"19/09/04","16:00",3.2,23.0,87.1,1008.8,340.1,1.1,2.4,197.7,0.00,20.8,25.2,"15:50:36",1
"19/09/04","16:10",2.8,22.9,88.6,1008.6,338.7,1.3,3.1,338.6,0.01,21.0,25.4,"16:04:00",1
"19/09/04","16:20",2.6,23.2,89.6,1008.3,313.6,1.2,2.6,331.1,0.02,21.4,25.4,"16:17:16",1
"19/09/04","16:30",2.4,23.2,90.2,1009.0,316.0,1.3,2.5,311.5,0.02,21.5,25.4,"16:28:40",1
"19/09/04","16:40",2.0,23.3,90.7,1009.3,295.2,0.7,2.2,316.2,0.00,21.7,25.7,"16:32:50",1
"19/09/04","16:50",1.8,23.2,91.0,1009.5,284.8,0.8,1.4,307.1,0.00,21.7,25.6,"16:47:44",1
"19/09/04","17:00",1.4,23.5,91.5,1009.3,272.0,0.7,1.3,325.9,0.00,22.1,25.6,"16:52:08",1
"19/09/04","17:10",1.2,23.5,91.4,1009.5,266.9,0.6,1.2,322.3,0.02,22.1,25.7,"17:08:08",1
"19/09/04","17:20",0.6,23.7,91.4,1009.7,280.0,0.8,1.9,318.8,0.04,22.3,25.8,"17:19:52",1
"19/09/04","17:30",0.0,23.9,91.9,1009.5,270.3,0.7,1.6,326.7,0.07,22.5,25.8,"17:24:56",1
"19/09/04","17:40",0.0,24.2,91.7,1008.6,265.2,0.7,1.8,240.8,0.10,22.8,25.6,"17:35:12",1
"19/09/04","17:50",0.0,24.5,91.8,1009.0,264.9,0.6,1.4,226.0,0.07,23.1,25.8,"17:42:40",1
"19/09/04","18:00",0.0,24.6,91.8,1009.0,331.8,0.5,1.8,343.8,0.04,23.2,25.9,"17:53:12",1
"19/09/04","18:10",0.0,24.7,92.1,1009.3,347.9,0.8,1.6,336.2,0.02,23.4,25.7,"18:09:12",1
"19/09/04","18:20",0.0,24.7,92.0,1009.3,306.7,0.6,1.7,320.2,0.01,23.4,26.0,"18:13:20",1
"19/09/04","18:30",0.0,24.6,92.3,1009.7,283.0,0.5,1.3,327.4,0.00,23.3,26.1,"18:21:44",1
"19/09/04","18:40",0.0,24.6,92.6,1009.7,314.3,0.7,1.6,340.3,0.00,23.4,25.9,"18:39:36",1
"19/09/04","18:50",0.0,24.5,92.3,1009.7,311.5,1.0,2.4,342.3,0.00,23.2,25.6,"18:47:12",1
"19/09/04","19:00",0.0,24.2,92.4,1009.5,314.4,1.0,1.9,328.6,0.00,22.9,25.8,"18:59:52",1
"19/09/04","19:10",0.0,24.0,92.8,1009.7,291.6,1.0,2.5,328.3,0.00,22.8,26.0,"19:01:28",1
"19/09/04","19:20",0.0,24.0,92.9,1009.5,283.5,0.6,1.0,289.0,0.00,22.8,25.9,"19:16:00",1
"19/09/04","19:30",0.0,24.0,93.1,1009.5,293.1,0.7,1.2,323.4,0.00,22.9,25.7,"19:22:24",1
"19/09/04","19:40",0.0,24.0,93.2,1009.5,293.8,0.6,1.2,324.5,0.00,22.9,25.9,"19:37:36",1
"19/09/04","19:50",0.2,23.9,93.4,1009.7,308.8,0.7,1.3,330.7,0.00,22.8,25.9,"19:47:04",1
"19/09/04","20:00",0.0,24.0,93.5,1010.0,290.6,0.7,1.3,338.3,0.00,22.9,25.7,"19:59:28",1
"19/09/04","20:10",0.0,24.0,93.5,1010.4,338.2,1.0,1.6,332.3,0.00,22.9,25.8,"20:02:32",1
"19/09/04","20:20",0.0,24.0,93.8,1010.0,333.3,0.8,1.4,339.9,0.00,23.0,25.9,"20:16:56",1
"19/09/04","20:30",0.0,24.0,93.7,1010.2,307.9,0.8,1.3,339.0,0.00,23.0,25.7,"20:22:16",1
"19/09/04","20:40",0.0,23.9,93.9,1010.4,287.4,0.5,1.1,263.2,0.00,22.9,25.7,"20:32:08",1
"19/09/04","20:50",0.0,23.9,93.9,1010.4,323.9,0.8,1.3,322.9,0.00,22.9,25.8,"20:46:00",1
"19/09/04","21:00",0.0,23.8,94.0,1010.2,311.7,0.7,1.1,322.1,0.00,22.8,25.8,"20:52:56",1
"19/09/04","21:10",0.0,23.7,94.1,1010.7,310.9,0.8,1.2,321.0,0.00,22.7,25.5,"21:01:52",1
"19/09/04","21:20",0.0,23.7,94.3,1010.4,272.8,0.5,0.9,254.9,0.00,22.8,25.7,"21:12:00",1
"19/09/04","21:30",0.0,23.7,94.4,1010.7,298.1,0.3,0.8,329.4,0.00,22.8,25.6,"21:29:44",1
"19/09/04","21:40",0.0,23.7,94.4,1010.2,337.0,0.7,1.2,321.7,0.00,22.8,25.5,"21:32:32",1
"19/09/04","21:50",0.0,23.5,94.6,1010.4,313.5,0.7,1.1,316.7,0.00,22.6,25.7,"21:44:40",1
"19/09/04","22:00",0.0,23.6,94.8,1010.4,292.0,0.7,1.2,318.5,0.00,22.8,25.5,"21:51:28",1
"19/09/04","22:10",0.0,23.6,94.6,1010.2,290.7,0.7,1.3,322.3,0.00,22.7,25.4,"22:08:16",1
"19/09/04","22:20",0.0,23.5,94.8,1010.4,314.3,0.7,1.1,333.5,0.00,22.7,25.3,"22:12:16",1
"19/09/04","22:30",0.0,23.4,94.7,1010.4,302.7,0.3,0.9,353.0,0.00,22.5,25.5,"22:21:28",1
"19/09/04","22:40",0.0,23.4,94.8,1010.4,327.4,0.6,1.0,322.0,0.00,22.6,25.5,"22:37:28",1
"19/09/04","22:50",0.0,23.3,94.9,1010.4,311.7,0.6,1.0,295.1,0.00,22.5,25.4,"22:43:52",1
"19/09/04","23:00",0.0,23.2,95.0,1010.9,308.5,0.0,0.4,309.0,0.00,22.4,25.3,"22:59:36",1
"19/09/04","23:10",0.0,23.2,95.1,1010.4,317.7,0.7,1.6,341.3,0.00,22.4,25.4,"23:08:08",1
"19/09/04","23:20",0.0,23.3,95.4,1010.7,334.0,1.0,1.7,342.5,0.00,22.6,25.3,"23:10:48",1
"19/09/04","23:30",0.0,23.3,95.4,1010.7,279.0,0.5,0.9,237.3,0.00,22.6,25.3,"23:23:20",1
"19/09/04","23:40",0.0,23.3,95.3,1010.4,326.5,1.0,1.4,337.7,0.00,22.5,25.2,"23:38:40",1
"19/09/04","23:50",0.0,23.2,95.3,1010.4,326.3,0.6,1.4,339.2,0.00,22.4,25.2,"23:40:08",1
"19/09/04","24:00",0.0,23.2,95.5,1010.9,290.2,0.6,0.8,289.4,0.00,22.5,25.4,"23:50:48",1
